Meteo pe oră la Bolshoe Kachino

Astăzi, 10 Mai, Luni

Timp Temperatura Precipitaţii Vânt Presiune Umiditate
00:00 +14°C° 0 mm 2 m/s 747 mmHg 68%
01:00 +13°C° 0 mm 2 m/s 747 mmHg 69%
02:00 +13°C° 0 mm 2 m/s 747 mmHg 70%
03:00 +12°C° 0 mm 2 m/s 748 mmHg 70%
04:00 +12°C° 0 mm 2 m/s 748 mmHg 71%
05:00 +13°C° 0 mm 2 m/s 748 mmHg 67%
06:00 +15°C° 0 mm 2 m/s 749 mmHg 64%
07:00 +16°C° 0 mm 2 m/s 749 mmHg 60%
08:00 +18°C° 0 mm 2 m/s 749 mmHg 54%
09:00 +20°C° 0 mm 2 m/s 749 mmHg 48%
10:00 +22°C° 0 mm 3 m/s 749 mmHg 41%
11:00 +24°C° 0 mm 2 m/s 750 mmHg 38%
12:00 +24°C° 0 mm 2 m/s 750 mmHg 35%
13:00 +25°C° 0 mm 2 m/s 750 mmHg 32%
14:00 +25°C° 0 mm 2 m/s 750 mmHg 32%
15:00 +25°C° 0 mm 2 m/s 750 mmHg 31%
16:00 +25°C° 0 mm 2 m/s 750 mmHg 31%
17:00 +24°C° 0 mm 1 m/s 750 mmHg 37%
18:00 +23°C° 0 mm 1 m/s 750 mmHg 42%
19:00 +22°C° 0 mm 1 m/s 750 mmHg 48%
20:00 +20°C° 0 mm 1 m/s 751 mmHg 50%
21:00 +19°C° 0 mm 1 m/s 751 mmHg 53%
22:00 +18°C° 0 mm 1 m/s 751 mmHg 56%
23:00 +16°C° 0 mm 1 m/s 751 mmHg 57%

Mâine, 11 Mai, Marţi

Timp Temperatura Precipitaţii Vânt Presiune Umiditate
00:00 +15°C° 0 mm 1 m/s 752 mmHg 58%
01:00 +15°C° 0 mm 2 m/s 752 mmHg 60%
02:00 +14°C° 0 mm 2 m/s 752 mmHg 60%
03:00 +14°C° 0 mm 1 m/s 752 mmHg 60%
04:00 +13°C° 0 mm 1 m/s 753 mmHg 60%
05:00 +14°C° 0 mm 1 m/s 753 mmHg 58%
06:00 +15°C° 0 mm 1 m/s 753 mmHg 57%
07:00 +16°C° 0 mm 1 m/s 753 mmHg 55%
08:00 +18°C° 0 mm 1 m/s 754 mmHg 51%
09:00 +20°C° 0 mm 1 m/s 754 mmHg 47%
10:00 +20°C° 0 mm 2 m/s 754 mmHg 43%
11:00 +21°C° 0 mm 2 m/s 754 mmHg 40%
12:00 +24°C° 0 mm 2 m/s 754 mmHg 38%
13:00 +25°C° 0 mm 2 m/s 754 mmHg 36%
14:00 +25°C° 0 mm 2 m/s 754 mmHg 35%
15:00 +25°C° 0 mm 2 m/s 754 mmHg 35%
16:00 +25°C° 0 mm 2 m/s 754 mmHg 35%
17:00 +24°C° 0 mm 1 m/s 754 mmHg 40%
18:00 +23°C° 0 mm 1 m/s 754 mmHg 46%
19:00 +22°C° 0 mm 1 m/s 754 mmHg 52%
20:00 +21°C° 0 mm 1 m/s 754 mmHg 57%
21:00 +19°C° 0 mm 1 m/s 754 mmHg 61%
22:00 +18°C° 0 mm 1 m/s 755 mmHg 66%
23:00 +18°C° 0 mm 1 m/s 755 mmHg 69%

Poimâine, 12 Mai, Miercuri

Timp Temperatura Precipitaţii Vânt Presiune Umiditate
00:00 +16°C° 0 mm 1 m/s 755 mmHg 71%
01:00 +16°C° 0 mm 1 m/s 755 mmHg 74%
02:00 +15°C° 0 mm 1 m/s 755 mmHg 78%
03:00 +15°C° 0 mm 1 m/s 755 mmHg 82%
04:00 +14°C° 0 mm 2 m/s 755 mmHg 86%
05:00 +15°C° 0 mm 2 m/s 755 mmHg 82%
06:00 +16°C° 0 mm 2 m/s 756 mmHg 78%
07:00 +17°C° 0 mm 2 m/s 756 mmHg 73%
08:00 +18°C° 0 mm 2 m/s 756 mmHg 67%
09:00 +19°C° 0 mm 2 m/s 756 mmHg 61%
10:00 +21°C° 0 mm 2 m/s 756 mmHg 55%
11:00 +23°C° 0 mm 2 m/s 756 mmHg 52%
12:00 +24°C° 0 mm 2 m/s 756 mmHg 49%
13:00 +25°C° 0 mm 2 m/s 755 mmHg 46%
14:00 +25°C° 0 mm 2 m/s 755 mmHg 44%
15:00 +25°C° 0 mm 2 m/s 755 mmHg 42%
16:00 +25°C° 0 mm 3 m/s 755 mmHg 40%
17:00 +24°C° 0 mm 2 m/s 755 mmHg 45%
18:00 +23°C° 0 mm 2 m/s 755 mmHg 50%
19:00 +21°C° 0 mm 2 m/s 755 mmHg 55%
20:00 +19°C° 0 mm 2 m/s 755 mmHg 57%
21:00 +19°C° 0 mm 1 m/s 755 mmHg 59%
22:00 +16°C° 0 mm 1 m/s 755 mmHg 61%
23:00 +16°C° 0 mm 1 m/s 755 mmHg 63%

13 Mai, Joi

Timp Temperatura Precipitaţii Vânt Presiune Umiditate
00:00 +15°C° 0 mm 1 m/s 755 mmHg 64%
01:00 +15°C° 0 mm 1 m/s 755 mmHg 65%
02:00 +14°C° 0 mm 1 m/s 755 mmHg 67%
03:00 +14°C° 0 mm 1 m/s 756 mmHg 68%
04:00 +13°C° 0 mm 1 m/s 756 mmHg 69%
05:00 +15°C° 0 mm 1 m/s 756 mmHg 66%
06:00 +16°C° 0 mm 1 m/s 756 mmHg 63%
07:00 +19°C° 0 mm 1 m/s 756 mmHg 59%
08:00 +20°C° 0 mm 1 m/s 756 mmHg 55%
09:00 +22°C° 0 mm 1 m/s 756 mmHg 50%
10:00 +24°C° 0 mm 1 m/s 756 mmHg 45%
11:00 +25°C° 0 mm 1 m/s 756 mmHg 43%
12:00 +25°C° 0 mm 1 m/s 755 mmHg 41%
13:00 +26°C° 0 mm 1 m/s 755 mmHg 39%
14:00 +27°C° 0 mm 1 m/s 755 mmHg 39%
15:00 +27°C° 0 mm 1 m/s 754 mmHg 38%
16:00 +27°C° 0 mm 1 m/s 754 mmHg 37%
17:00 +26°C° 0 mm 1 m/s 754 mmHg 43%
18:00 +25°C° 0 mm 1 m/s 754 mmHg 49%
19:00 +24°C° 0 mm 1 m/s 754 mmHg 54%
20:00 +22°C° 0 mm 1 m/s 754 mmHg 58%
21:00 +21°C° 0 mm 1 m/s 754 mmHg 61%
22:00 +17°C° 0 mm 0 m/s 754 mmHg 64%
23:00 +17°C° 0 mm 0 m/s 754 mmHg 65%

14 Mai, Vineri

Timp Temperatura Precipitaţii Vânt Presiune Umiditate
00:00 +16°C° 0 mm 0 m/s 754 mmHg 67%
01:00 +16°C° 0 mm 0 m/s 754 mmHg 68%
02:00 +16°C° 0 mm 0 m/s 754 mmHg 70%
03:00 +15°C° 0 mm 0 m/s 754 mmHg 71%
04:00 +15°C° 0 mm 0 m/s 754 mmHg 72%
05:00 +16°C° 0 mm 0 m/s 754 mmHg 69%
06:00 +19°C° 0 mm 1 m/s 754 mmHg 65%
07:00 +21°C° 0 mm 1 m/s 754 mmHg 61%
08:00 +22°C° 0 mm 1 m/s 754 mmHg 57%
09:00 +24°C° 0 mm 1 m/s 754 mmHg 53%
10:00 +25°C° 0 mm 2 m/s 754 mmHg 48%
11:00 +26°C° 0 mm 2 m/s 754 mmHg 45%
12:00 +27°C° 0 mm 2 m/s 754 mmHg 43%
13:00 +27°C° 0 mm 3 m/s 753 mmHg 40%
14:00 +28°C° 0 mm 3 m/s 753 mmHg 39%
15:00 +28°C° 0 mm 3 m/s 753 mmHg 39%
16:00 +28°C° 0 mm 3 m/s 753 mmHg 39%
17:00 +27°C° 0 mm 3 m/s 753 mmHg 45%
18:00 +26°C° 0 mm 3 m/s 752 mmHg 51%
19:00 +24°C° 0 mm 2 m/s 752 mmHg 57%
20:00 +23°C° 0 mm 2 m/s 752 mmHg 58%
21:00 +21°C° 0 mm 2 m/s 752 mmHg 59%
22:00 +21°C° 0 mm 2 m/s 752 mmHg 60%
23:00 +20°C° 0 mm 2 m/s 751 mmHg 62%

15 Mai, Sâmbătă

Timp Temperatura Precipitaţii Vânt Presiune Umiditate
00:00 +19°C° 0 mm 2 m/s 751 mmHg 64%
01:00 +19°C° 0 mm 2 m/s 751 mmHg 66%
02:00 +18°C° 0 mm 2 m/s 751 mmHg 67%
03:00 +17°C° 0 mm 2 m/s 751 mmHg 68%
04:00 +16°C° 0 mm 1 m/s 751 mmHg 68%
05:00 +17°C° 0 mm 2 m/s 751 mmHg 65%
06:00 +19°C° 0 mm 2 m/s 751 mmHg 62%
07:00 +20°C° 0 mm 2 m/s 751 mmHg 58%
08:00 +21°C° 0 mm 3 m/s 751 mmHg 53%
09:00 +24°C° 0 mm 3 m/s 751 mmHg 48%
10:00 +25°C° 0 mm 4 m/s 751 mmHg 44%
11:00 +26°C° 0 mm 4 m/s 751 mmHg 41%
12:00 +27°C° 0 mm 5 m/s 750 mmHg 38%
13:00 +28°C° 0 mm 5 m/s 750 mmHg 35%
14:00 +28°C° 0 mm 5 m/s 750 mmHg 35%
15:00 +28°C° 0 mm 5 m/s 750 mmHg 35%
16:00 +28°C° 0 mm 5 m/s 749 mmHg 36%
17:00 +27°C° 0 mm 4 m/s 749 mmHg 42%
18:00 +25°C° 0 mm 3 m/s 749 mmHg 49%
19:00 +24°C° 0 mm 3 m/s 748 mmHg 56%
20:00 +22°C° 0 mm 3 m/s 748 mmHg 58%
21:00 +20°C° 0 mm 2 m/s 748 mmHg 60%
22:00 +19°C° 0 mm 2 m/s 748 mmHg 62%
23:00 +18°C° 0 mm 2 m/s 748 mmHg 63%
Arată mai mult

Formular de consimțământ

Meteoprog și furnizorii noștri de servicii pot stoca și accesa date personale, precum cookies, identificatori de dispozitiv sau alte tehnologii similare pe dispozitivul dumneavoastră și procesa astfel de date pentru a personaliza conținutul și reclamele, dar și pentru a oferi caracteristici de social media și pentru a analiza traficul.

  • Stocarea și/sau accesarea informațiilor pe dispozitivul dumneavoastră

    Cookies, identificatori de dispozitiv sau alte informații pot fi stocate sau accesate pe dispozitiv în scopurile indicate mai sus.

  • Reclame și conținut personalizat, evaluarea reclamelor și a conținutului, informații despre audiențe și dezvoltarea produselor

    Reclamele și conținutul pot fi personalizate pe baza unui profil. Pot fi adăugate date suplimentare pentru a personaliza mai bine reclamele și conținutul. Performanța reclamelor și conținutului poate fi măsurată. Pot fi obținute informații despre utilizatorii care au văzut reclamele și conținutul. Aceste date pot fi utilizate pentru a dezvolta sau îmbunătăți experiența utilizatorilor, sistemele și software-ul.

Dând clic pe ‘Sunt de acord’, permiteți utilizarea cookie-urilor menționate, a identificatorilor de dispozitiv, balizelor web sau altor tehnologii similare. Setările pot fi modificate din browser-ul dispozitivului dumneavoastră.

În anumite scopuri, interesele legitime pot prima asupra consimțământului. Puteți citi mai multe informații în acest sens în Politica privind Confidențialitatea Datelor și Cookie.